Vertical_Velocity
-3 -3 -4 -5 -2 -1 -1 -1 -0 -2 -1 -4 -6 -3 -1 1 1 -2 -1 -4 1 3 -1 -3 -2 2 4 2 -2 -7 -0 -9 -2 -1 -5 0 13 1 1 2 0 -1 1 12
-2 -4 -4 -3 -4 -5 -5 -3 -1 -2 -2 -4 -5 -3 -1 -2 1 -1 3 1 3 1 -1 -6 1 -0 2 -1 -2 -7 -0 8 -7 -29 -6 10 1 -1 3 -2 4 -0 6 10
-1 -6 -3 -2 -4 -2 -6 -6 -3 -5 -5 -4 -3 -4 -2 -1 -2 -2 -3 -2 -1 -4 -6 -1 -4 -5 -12 4 -2 3 -2 1 16 12 5 -1 6 -5 -1 5 3 -4 8 12
-4 0 -2 -2 -6 -1 -3 -3 -3 -3 -7 -3 -3 -4 -2 -2 1 1 -0 2 -0 -2 -4 -2 4 -3 -2 8 0 -6 -4 -2 3 1 1 -3 2 21 14 -3 16 5 6 -1
-3 -2 1 1 -3 -3 2 -4 -4 -3 -5 -3 -3 -2 -2 -2 1 -0 -0 -2 -4 -0 1 5 -16 1 6 2 -3 -6 -0 -8 -2 -4 2 18 -3 -3 1 1 -3 -1 -1 2
-2 -2 -2 -0 -3 -3 -3 -6 -3 -3 -2 -1 -1 -1 -1 -2 -3 1 1 -2 -2 1 3 3 -1 6 5 3 -1 -2 0 -2 -7 1 -2 13 -15 -2 0 4 1 3 -4 -4
-1 -2 -1 -5 -2 -1 -6 -6 -6 -7 -2 -2 -3 -3 -0 -1 -2 -2 -0 -2 -0 1 2 3 3 -0 -1 4 -0 -1 -2 1 3 -2 -13 -1 -3 5 2 3 -0 2 3 2
-1 -2 -3 -1 -1 -2 -4 -3 -5 -6 -2 -3 -2 -2 -2 -2 0 4 -4 1 -1 -2 -6 -3 -6 -7 -8 2 -2 1 -3 0 -2 2 3 0 1 -7 -26 -12 7 1 -3 -3
0 0 -2 -3 -4 -1 -1 -2 -5 -4 -6 -2 0 1 -3 -3 -3 -1 -1 0 0 -2 -4 -5 -3 -0 -2 -2 -9 1 2 1 1 -9 2 3 -2 -2 1 -1 11 2 0 -2
2 6 2 -4 -5 -2 -1 -6 -3 -3 -6 -3 -3 -2 -2 -4 -2 -4 -3 -2 -4 -2 -2 1 -3 2 -2 2 -0 -10 -5 -8 0 -4 -1 4 -1 -11 -5 1 -15 -12 -5 -2
3 -3 -0 -0 -3 -3 -3 -0 -3 -4 -4 -4 -3 -1 -2 -4 -4 -2 -2 1 -7 -2 -2 -2 -2 -0 -2 0 -0 -1 1 -3 -2 -4 1 3 -5 -8 -4 -4 -4 -0 -1 2
2 6 7 -1 1 -6 -2 -3 -2 -4 -3 -3 -2 -2 -2 -3 -3 -3 -4 -0 -0 3 -3 -2 -1 3 -0 0 8 -2 4 -2 -1 0 -13 1 2 4 6 5 4 0 -0 1
7 -3 -4 8 2 -2 -2 -2 -2 -4 -5 -1 -0 -1 -0 -0 -2 -4 2 -6 -1 1 2 -1 -0 -0 -2 4 2 4 1 -0 3 -2 6 -1 2 -0 5 5 3 0 2 -3
3 0 -4 5 5 2 0 -3 -4 -1 0 1 0 -0 1 2 -0 1 -1 3 -1 4 3 -1 -0 1 -0 0 1 1 -0 -0 -1 -0 -1 0 8 10 -1 -1 5 2 0 0
-5 3 -11 6 6 1 2 -4 -1 -4 -4 -2 -0 -2 -1 0 1 -1 1 0 -0 -2 -1 -1 -1 -1 2 2 1 1 -1 -2 -7 -12 -1 4 -0 -9 -8 -5 -8 -2 -2 -8
-3 -0 -8 4 2 1 2 -3 -2 -3 -5 -5 -0 -2 -1 4 1 -0 -1 -0 -0 -1 -2 -1 -1 -0 1 2 0 0 4 6 4 -5 -0 2 -0 1 1 -1 -1 4 1 3
1 -5 1 1 -2 1 -2 -0 -3 -4 -5 -3 -1 -1 1 -1 -1 -2 1 0 -2 -0 -1 -0 -1 -1 0 1 0 1 2 4 3 1 -2 10 6 -4 1 1 2 3 5 4
-1 -1 2 -1 0 4 -2 0 -1 -5 -3 -3 -3 -1 -2 -1 -0 -1 1 -1 -1 -0 0 -1 -0 -0 -1 -2 5 4 1 2 5 2 1 -1 -1 1 1 2 1 4 0 1
-2 1 -0 -3 5 1 -2 -2 -2 -2 -5 -3 -1 -3 -3 -2 -1 0 0 -0 -0 1 1 -1 0 -0 -1 -1 -2 0 -1 -3 -3 2 0 2 2 0 1 2 5 3 2 2
0 2 -3 -0 -0 2 -3 -1 -2 -3 -3 -2 -2 1 -4 0 -1 0 -1 -0 0 2 -1 -0 1 -0 1 -1 -2 -2 1 -0 -1 1 6 8 8 1 -0 -2 -2 -0 -2 -2
2 -0 -2 1 2 -1 -1 -3 -2 -3 -1 -4 -0 -1 -0 -0 -2 -1 -1 -0 1 1 0 2 0 -1 0 0 -1 -0 1 0 0 1 0 -1 -2 -1 1 2 0 1 1 -2
-1 1 -1 0 -1 -3 -2 -1 -3 -1 -2 0 1 -1 -0 -1 -2 -1 -0 0 1 0 -0 1 0 -0 -0 -0 0 2 0 1 1 1 1 2 1 1 -1 -2 1 1 3 1
1 1 -0 -2 -1 -1 -0 -3 -1 -2 0 -0 1 -1 -1 -1 -2 -0 0 1 0 -1 -0 0 -1 -1 -2 0 1 2 0 -0 0 1 1 -0 0 0 1 1 1 2 3 2
2 1 -5 -1 -0 -2 -2 0 -2 1 1 -0 -2 -3 -1 -1 -0 0 0 0 1 -0 -0 -0 -1 -0 0 -1 -0 1 0 1 1 1 0 0 1 0 -1 -0 1 1 2 -1
-1 -4 -4 -2 -2 -4 -0 -1 -0 0 -0 -1 -4 -1 -1 0 0 -0 -0 -0 0 -0 -1 0 -1 -1 0 -1 1 1 0 1 1 1 1 1 1 1 -1 -0 2 -2 2 3
-1 -4 -3 -3 -2 -2 -2 -0 1 -0 -2 -4 -3 -1 1 0 -1 -0 -1 -1 -0 0 0 0 -0 -2 -0 -0 -1 -0 0 0 -0 -0 0 -0 0 0 1 0 -2 1 2 4
-5 -3 -3 -1 -2 -1 1 2 -1 -2 0 -2 -0 -0 0 -1 -1 -0 -1 -0 0 0 -0 0 1 -1 -1 1 -0 -1 0 1 1 -0 -0 -0 -1 -0 -1 1 2 0 -1 -2
Height
3128 3125 3120 3117 3113 3108 3104 3100 3096 3092 3089 3087 3081 3079 3076 3073 3068 3066 3063 3059 3056 3053 3049 3045 3043 3042 3038 3032 3028 3024 3021 3014 3007 3003 2997 2992 2993 2994 2993 2989 2985 2985 2982 2984
3124 3121 3116 3112 3108 3105 3101 3097 3093 3089 3086 3083 3078 3076 3073 3070 3066 3063 3059 3058 3054 3051 3049 3046 3041 3039 3036 3030 3026 3022 3018 3012 3007 2999 2999 2992 2993 2992 2994 2993 2989 2984 2983 2984
3121 3116 3113 3109 3104 3101 3097 3094 3091 3087 3083 3079 3075 3072 3070 3067 3062 3058 3055 3053 3051 3048 3046 3044 3039 3036 3032 3027 3023 3020 3016 3013 3009 3005 3001 2996 2992 2992 2988 2988 2987 2986 2984 2985
3117 3113 3109 3106 3101 3097 3094 3090 3087 3084 3081 3074 3071 3069 3066 3063 3060 3056 3051 3049 3048 3045 3043 3041 3039 3035 3030 3027 3023 3020 3016 3012 3008 3002 2998 2995 2991 2992 2986 2986 2985 2988 2987 2984
3114 3110 3106 3102 3098 3094 3092 3088 3085 3080 3076 3071 3067 3063 3061 3058 3056 3053 3049 3046 3045 3044 3042 3040 3035 3033 3030 3027 3024 3019 3016 3012 3006 3000 2998 2996 2992 2991 2991 2991 2990 2990 2988 2987
3111 3107 3104 3099 3095 3091 3088 3085 3082 3078 3074 3068 3064 3062 3057 3054 3052 3050 3046 3044 3041 3040 3039 3036 3034 3032 3030 3028 3024 3019 3016 3012 3006 3000 2996 2994 2994 2996 2996 2995 2992 2990 2989 2986
3107 3103 3100 3096 3092 3088 3084 3081 3077 3073 3069 3066 3062 3059 3055 3053 3051 3050 3047 3043 3041 3039 3036 3034 3033 3031 3029 3027 3025 3021 3016 3013 3008 3004 2998 2994 3001 2998 2997 2995 2990 2987 2986 2983
3104 3100 3096 3092 3088 3084 3080 3077 3073 3067 3064 3062 3058 3054 3052 3051 3049 3048 3046 3044 3041 3037 3036 3035 3034 3033 3030 3028 3026 3022 3018 3014 3011 3008 3003 3003 3000 2998 2995 2992 2990 2985 2983 2979
3099 3096 3091 3088 3085 3081 3076 3072 3068 3063 3061 3059 3056 3052 3050 3049 3047 3047 3045 3042 3040 3038 3036 3034 3035 3033 3031 3028 3025 3023 3018 3016 3015 3010 3005 3001 3001 2999 2997 2992 2988 2984 2981 2973
3095 3093 3089 3085 3081 3077 3074 3068 3063 3059 3056 3054 3052 3049 3048 3046 3045 3043 3043 3041 3040 3038 3036 3036 3034 3033 3031 3029 3026 3021 3018 3016 3014 3012 3008 3004 3000 2998 2995 2995 2992 2981 2976 2969
3093 3089 3086 3081 3077 3074 3071 3065 3060 3057 3053 3050 3049 3046 3044 3043 3043 3042 3041 3040 3039 3038 3036 3036 3035 3033 3031 3029 3026 3023 3021 3018 3016 3012 3008 3005 3000 2997 2994 2991 2983 2977 2971 2964
3092 3088 3082 3078 3074 3070 3066 3062 3057 3053 3051 3049 3047 3044 3043 3043 3041 3040 3039 3039 3038 3037 3037 3036 3034 3033 3030 3028 3027 3024 3022 3021 3019 3017 3011 3006 3000 2995 2990 2984 2978 2972 2966 2961
3089 3085 3085 3077 3071 3066 3062 3058 3055 3051 3048 3047 3044 3043 3042 3040 3039 3038 3038 3036 3034 3033 3033 3032 3032 3031 3029 3028 3025 3023 3020 3018 3015 3011 3007 3000 2995 2991 2986 2980 2974 2968 2963 2956
3087 3084 3083 3078 3070 3064 3058 3055 3053 3051 3047 3047 3044 3042 3041 3039 3037 3035 3034 3032 3030 3029 3029 3028 3029 3029 3028 3027 3025 3022 3019 3015 3010 3006 3001 2995 2991 2986 2979 2975 2970 2964 2959 2952
3086 3082 3079 3077 3069 3063 3057 3053 3050 3049 3050 3048 3044 3043 3041 3039 3036 3032 3030 3027 3025 3025 3027 3027 3028 3027 3027 3024 3022 3020 3016 3011 3007 3001 2997 2991 2986 2980 2975 2970 2964 2958 2951 2946
3082 3079 3076 3073 3067 3061 3056 3052 3050 3048 3047 3046 3044 3042 3040 3037 3033 3029 3027 3026 3026 3026 3027 3027 3027 3027 3026 3024 3021 3019 3014 3010 3004 2999 2993 2988 2982 2977 2971 2965 2959 2954 2947 2941
3077 3074 3073 3068 3063 3059 3055 3052 3050 3047 3046 3044 3043 3041 3038 3034 3030 3028 3028 3028 3028 3028 3028 3028 3027 3026 3024 3022 3020 3015 3011 3006 3002 2996 2991 2987 2980 2973 2968 2962 2956 2950 2944 2937
3074 3071 3069 3064 3060 3056 3052 3050 3048 3047 3046 3044 3043 3041 3036 3032 3030 3030 3029 3029 3029 3029 3028 3028 3026 3025 3022 3021 3017 3012 3007 3003 2999 2993 2988 2982 2977 2972 2966 2960 2954 2948 2941 2935
3071 3068 3064 3061 3058 3053 3050 3049 3048 3047 3048 3044 3042 3038 3034 3032 3030 3030 3030 3029 3029 3029 3027 3026 3026 3024 3022 3019 3013 3009 3005 3000 2995 2992 2986 2981 2976 2970 2964 2958 2951 2945 2939 2933
3067 3063 3060 3056 3054 3050 3051 3048 3049 3046 3046 3043 3041 3037 3034 3032 3028 3029 3030 3029 3028 3027 3027 3025 3024 3022 3021 3016 3012 3007 3003 2998 2994 2989 2985 2979 2974 2968 2962 2956 2950 2944 2938 2932
3063 3059 3057 3054 3052 3051 3049 3049 3048 3047 3045 3043 3039 3036 3032 3029 3028 3027 3028 3027 3026 3026 3027 3025 3023 3021 3019 3015 3010 3006 3002 2998 2993 2988 2984 2979 2973 2968 2962 2957 2951 2945 2939 2932
3059 3056 3053 3053 3052 3051 3051 3049 3049 3047 3046 3043 3038 3035 3031 3028 3027 3026 3027 3026 3026 3025 3025 3024 3022 3021 3017 3013 3009 3005 3001 2997 2993 2988 2984 2979 2974 2969 2963 2958 2952 2946 2940 2934
3055 3053 3052 3053 3053 3052 3050 3050 3049 3047 3045 3041 3038 3034 3031 3028 3027 3026 3026 3025 3025 3025 3024 3023 3022 3019 3015 3012 3008 3004 3000 2996 2992 2988 2984 2979 2974 2969 2964 2958 2953 2948 2943 2937
3052 3051 3052 3053 3051 3051 3050 3049 3047 3046 3043 3040 3036 3033 3030 3027 3026 3026 3025 3026 3025 3024 3024 3023 3021 3018 3014 3010 3006 3003 2999 2995 2991 2988 2984 2979 2975 2970 2965 2960 2956 2951 2946 2941
3051 3051 3052 3052 3051 3050 3048 3047 3045 3043 3041 3038 3035 3031 3029 3027 3026 3026 3026 3025 3024 3024 3024 3022 3019 3016 3013 3009 3006 3002 2999 2995 2991 2988 2984 2980 2975 2971 2967 2963 2959 2954 2949 2945
3050 3050 3051 3050 3049 3048 3046 3044 3042 3041 3039 3036 3033 3030 3028 3028 3027 3027 3026 3025 3025 3024 3022 3020 3018 3015 3012 3009 3005 3002 2998 2995 2991 2987 2983 2980 2976 2972 2969 2965 2962 2957 2952 2948
3050 3050 3049 3049 3047 3046 3044 3041 3040 3038 3037 3034 3032 3030 3029 3028 3026 3026 3025 3025 3025 3023 3021 3019 3017 3015 3011 3008 3005 3002 2998 2995 2991 2988 2984 2981 2977 2973 2970 2968 2964 2959 2955 2951